Regional Weather Roundup
Issued by NWS Upton, NY

Current Version | Previous Version | Graphics & Text | Print | Product List | Glossary Off
Versions: 1 2 3 4 5 6 7 8 9 10 11 12 13 14 15 16 17 18 19 20 21 22 23 24 25 26 27 28 29 30 31 32 33 34 35 36 37 38 39 40 41 42 43 44 45 46 47 48 49 50

000
ASUS41 KOKX 291108
RWROKX

REGIONAL WEATHER ROUNDUP
NATIONAL WEATHER SERVICE NEW YORK NY
700 AM EDT FRI MAY 29 2015

NOTE: "FAIR" INDICATES FEW OR NO CLOUDS BELOW 12,000 FEET WITH NO
SIGNIFICANT WEATHER AND/OR OBSTRUCTIONS TO VISIBILITY.

NYZ071-072-176-178-NJZ106-104-291200-
NEW YORK CITY METRO AREA


CITY           SKY/WX    TMP DP  RH WIND       PRES   REMARKS
CENTRAL PARK   SUNNY     66  53  63 VRB6      30.32R
LAGUARDIA APRT SUNNY     65  54  67 NE6       30.29R
KENNEDY INTL   MOSUNNY   67  54  63 N7        30.29R
NEWARK/LIBERTY MOSUNNY   67  55  65 N7        30.29R
BRNX BOT. GARD   N/A     66  54  63 CALM      30.32R
TETERBORO      SUNNY     65  54  67 CALM      30.29R
$$

NYZ177-179-078>081-291200-
LONG ISLAND NEW YORK

CITY           SKY/WX    TMP DP  RH WIND       PRES   REMARKS
FARMINGDALE    SUNNY     63  56  78 N7        30.29R
ISLIP          MOSUNNY   64  55  72 N6        30.27R
SHIRLEY        SUNNY     63  56  78 N5        30.29R
WESTHAMPTON    SUNNY     63  57  81 N7        30.29R
MONTAUK POINT    N/A     61  56  83 CALM      30.28S
$$

NYZ052-065-067-291200-
HUDSON VALLEY

CITY           SKY/WX    TMP DP  RH WIND       PRES   REMARKS
WHITE PLAINS   SUNNY     64  55  72 N7        30.29R
NEWBURGH       SUNNY     59  57  94 CALM      30.33R
MONTGOMERY     SUNNY     56  54  93 CALM      30.32R
POUGHKEEPSIE   SUNNY     58  54  86 CALM      30.31R
ALBANY         MOSUNNY   60  54  80 CALM      30.33R
$$

NJZ001-105-106-008-010-013-015-019>022-104-291200-
NEW JERSEY

CITY           SKY/WX    TMP DP  RH WIND       PRES   REMARKS
NEWARK/LIBERTY MOSUNNY   67  55  65 N7        30.29R
TETERBORO      SUNNY     65  54  67 CALM      30.29R
CALDWELL       SUNNY     62  55  77 VRB3      30.30R
MORRISTOWN     SUNNY     61  59  94 CALM      30.30R
SOMERVILLE     SUNNY     58  54  86 NW3       30.28R
SUSSEX         SUNNY     54  52  93 CALM      30.33R
ANDOVER          N/A     56  56 100 CALM      30.32R
TRENTON        SUNNY     65  55  70 N3        30.28R
MILLVILLE      FAIR      67  57  70 NE12      30.27R
ATLANTIC CITY  SUNNY     65  58  78 NE6       30.27R
WRIGHTSTOWN    SUNNY     63  58  84 NE2       30.26R
TOMS RIVER     SUNNY    N/A N/A N/A NE3       30.28R
BELMAR         SUNNY     66  52  59 N5        30.28S
$$

PAZ047>061-062-071-291200-
EASTERN PENNSYLVANIA

CITY           SKY/WX    TMP DP  RH WIND       PRES   REMARKS
PHILADELPHIA   MOSUNNY   69  55  60 NE10      30.28R
ALLENTOWN      SUNNY     60  54  80 N3        30.30R
SCRANTON       SUNNY     57  50  77 E5        30.32R
$$

CTZ002-004>006-009-010-012-RIZ004-006-007-MAZ004-011-015-291200-
SOUTHERN NEW ENGLAND
 IN CT

CITY           SKY/WX    TMP DP  RH WIND       PRES   REMARKS
BRADLEY INTL   MOSUNNY   61  55  81 NE3       30.30R
HARTFORD       SUNNY     61  55  81 SE7       30.30R
DANBURY        SUNNY     58  54  86 CALM      30.33R
WTRBRY/OXFORD  SUNNY     61  52  72 NE7       30.33R
BRIDGEPORT     SUNNY     64  56  75 N6        30.29R
MERIDEN        SUNNY     60  56  86 CALM      30.30R
NEW HAVEN      SUNNY     63  56  78 N12       30.29R
CHESTER        FAIR      63  55  77 N6        30.30R HAZE
GROTON         SUNNY     63  56  78 N8        30.27R
WILLIMANTIC    SUNNY     58  54  86 CALM      30.30R

 IN RI

CITY           SKY/WX    TMP DP  RH WIND       PRES   REMARKS
PROVIDENCE     MOSUNNY   65  56  72 N6        30.28R
BLOCK ISLAND   SUNNY     61  55  82 N3        30.28R
WESTERLY       SUNNY     62  57  83 N3        30.28R

 IN MA

CITY           SKY/WX    TMP DP  RH WIND       PRES   REMARKS
BOSTON         MOSUNNY   67  56  67 N5        30.28R
WORCESTER      SUNNY     63  54  72 N8        30.30R
WESTFIELD      SUNNY     60  55  83 CALM      30.30R
PROVINCETOWN   SUNNY     61  54  77 NW5       30.27R
NANTUCKET      MOSUNNY   62  58  86 CALM      30.27R
$$

ANZ330-335-338-340-345-350-353-355-291200-
COASTAL MARINE OBSERVATIONS


STATION/POSITION TIME  SKY/WX   TEMP    WIND        PRES    VSBY  WAVE
                                AIR SEA DIR/SP/G                  HT/PER
                 (UTC)          (F)     (DEG/KT/KT) (MB)    (MI)  (FT/S)
NY HARB ENTRANCE 1050            58 57  350/  6/  6 1025.0          2/ 8
4S FIRE IS       1003               57                N/A           3/ 8
20S FIRE ISLAND  1050            60 57   20/  6/  6 1024.9          3/ 9
GREAT SOUTH BAY  1000            63 67   20/  8/ 12   N/A
23SW MTP         1050            57 54  360/  6/  8 1024.6          3/ 8
HUDSON CANYON    NOT AVBL
KINGS POINT      1000            62 57   30/  4/  6 1024.5
CENTRAL LI SOUND 1030            60 58   10/  4/  4   N/A
EASTERN LI SOUND 1000            59      70/  2/  2   N/A
ROBBINS REEF     1000            67      10/  9/ 11 1024.1
$$


>>>>>>>>>>>>>>>>>>>>>>>>>>>> KEY <<<<<<<<<<<<<<<<<<<<<<<<<<<
>                                                          <
>     SKY/WX - SKY CONDITION/PRESENT WEATHER               <
>     TMP    - TEMPERATURE IN FAHRENHEIT                   <
>     DP     - DEWPOINT IN FAHRENHEIT                      <
>     RH     - RELATIVE HUMIDITY IN PERCENT                <
>     WIND   - DIRECTION AND SPEED IN MPH                  <
>     PRES   - MEAN SEA LEVEL PRESSURE IN INCHES OF HG     <
>     WCI    - WIND CHILL INDEX                            <
>     VSB    - VISIBILITY IN MILES                         <
>     HX     - HEAT INDEX                                  <
>     TC     - TEMPERATURE IN CELSIUS                      <
>     VRB    - VARIABLE WIND DIRECTION                     <
>                                                          <
>>>>>>>>>>>>>>>>>>>>>>>>>>>> KEY <<<<<<<<<<<<<<<<<<<<<<<<<<<





USA.gov is the U.S. government's official web portal to all federal, state and local government web resources and services.